Weather Roundup
Issued by NWS Chicago, IL

Home | Current Version | Previous Version | Graphics & Text | Print | Product List | Glossary On
Versions: 1 2 3 4 5 6 7 8 9 10 11 12 13 14 15 16 17 18 19 20 21 22 23 24 25 26 27 28 29 30 31 32 33 34 35 36 37 38 39 40 41 42 43 44 45 46 47 48 49 50
000
NZUS59 KLOT 261004
HRRLOT

CHICAGO AREA WEATHER ROUNDUP
NATIONAL WEATHER SERVICE CHICAGO/ROMEOVILLE IL
500 AM CDT WED JUL 26 2017

NOTE: "FAIR" INDICATES FEW OR NO CLOUDS BELOW 12,000 FEET WITH NO
SIGNIFICANT WEATHER AND/OR OBSTRUCTIONS TO VISIBILITY.

* THESE STATIONS ARE NOT UNDER NWS QUALITY CONTROL. THEY ALSO MAY NOT
  REPORT WEATHER SUCH AS PRECIPITATION OR FOG.

ILZ005-006-012>014-019>023-261100-
NORTHEAST ILLINOIS

CITY           SKY/WX    TMP DP  RH WIND       PRES   REMARKS
OHARE          MOCLDY    66  59  78 S8        30.10F
MIDWAY         MOCLDY    69  60  73 S6        30.10F
AURORA         CLOUDY    64  60  87 SE5       30.11F
LANSING*       PTCLDY    65  58  78 CALM      30.12F
JOLIET*        CLOUDY    64  62  91 E5        30.11S
WAUKEGAN       PTCLDY    66  60  81 S6        30.08F
DUPAGE AIRPORT PTCLDY    63  61  93 S6        30.09F
WHEELING       CLEAR     67  62  84 S7        30.10F
MORRIS*        CLOUDY    63  60  91 CALM      30.09F
LEWIS AIRPORT* MOCLDY    63  58  84 S5        30.11F
NORTHERLY ISL    N/A     68  58  70 S5          N/A
$$

WIZ051-052-058>065-066-070>072-261100-
SOUTHEAST WISCONSIN

CITY           SKY/WX    TMP DP  RH WIND       PRES   REMARKS
MILWAUKEE      CLOUDY    69  59  70 S9        30.07F
KENOSHA*       PTCLDY    67  58  72 S8        30.08F
RACINE*        MOCLDY    69  59  70 S5        30.10F
WAUKESHA       MOCLDY    63  55  77 S7        30.08F
$$

INZ001>003-010>013-019-020-261100-
NORTHWEST INDIANA

CITY           SKY/WX    TMP DP  RH WIND       PRES   REMARKS
GARY*          PTCLDY    66  61  82 SE7       30.12F
MICHIGAN CITY* NOT AVBL
RENSSELAER*    NOT AVBL
VALPARAISO     CLOUDY    64  60  87 SE5       30.14S
$$

LMZ740>746-261100-
SOUTHERN LAKE MICHIGAN

STATION/POSITION TIME  SKY/WX   TEMP WIND        PRES    VSBY
                                AIR  DIR/SP/G
                 (UTC)          (F)  (DEG/KT/KT) (MB)    (MI)
HARRISON CRIB    0940            71  190/ 16/ 17   N/A
BURNHAM HARBOR   1000            69                N/A
CALUMET HARBOR   0930            69  180/  5/  7 1019.5F
BURNS HARBOR     0940            68  180/  7/ 13 1020.3S
MICHIGAN CITY    0940            68  160/  9/ 12   N/A
$$

ABBREVIATIONS USED IN REMARKS
   TC - TEMPERATURE IN CELSIUS
  WCI - WIND CHILL INDEX
   HX - HEAT INDEX
  VSB - VISIBILITY
$$



USA.gov is the U.S. government's official web portal to all federal, state and local government web resources and services.